Osceola, WI

6:15 PM CDT on June 24, 2017 (GMT -0500)
Simenstad Municipal

Weather History for KOEO - October, 2012

Change the Weather History Date:

Wednesday, October 24, 2012

  Actual Average (KANE) Record (KANE)
Temperature  
Mean Temperature 54 °F -  
Max Temperature 59 °F 51 °F 68 °F (2000)
Min Temperature 48 °F 36 °F 21 °F (1999)
Degree Days  
Heating Degree Days 10    
Growing Degree Days 4 (Base 50)    
Moisture  
Dew Point 54 °F    
Average Humidity 97    
Maximum Humidity 100    
Minimum Humidity 87    
Precipitation  
Precipitation 0.11 in - - ()
Sea Level Pressure  
Sea Level Pressure 29.81 in    
Wind  
Wind Speed 3 mph (NNW)    
Max Wind Speed 12 mph    
Max Gust Speed 20 mph    
Visibility 3 miles    
Events Fog , Rain    
Averages and records for this station are not official NWS values.
T = Trace of Precipitation, MM = Missing Value Source: NWS Daily Summary

Daily Weather History Graph

Daily Weather History Graph

Search for Another Location

Airport or City:

Trip Planner

Search our weather history database for the weather conditions in past years. The results will help you decide how hot, cold, wet, or windy it might be!

Date:

Astronomy

Oct. 24, 2012 Rise Set
Actual Time 7:39 AM CDT 6:09 PM CDT
Civil Twilight 7:09 AM CDT 6:39 PM CDT
Nautical Twilight 6:34 AM CDT 7:14 PM CDT
Astronomical Twilight 6:00 AM CDT 7:48 PM CDT
Moon 3:37 PM CDT 2:21 AM CDT
Length of Visible Light 11h 30m
Length of Day
10h 29m
Waxing Gibbous, 76% of the Moon is Illuminated
Oct 24
Waxing Gibbous
Oct 29
Full
Nov 6
Last Quarter
Nov 13
New
Nov 20
First Quarter

Hourly Weather History & Observations

Time (CDT) Temp. Dew Point Humidity Pressure Visibility Wind Dir Wind Speed Gust Speed Precip Events Conditions
12:15 AM 59.0 °F 59.0 °F 100% 29.82 in 0.2 mi West 3.5 mph - N/A Fog Fog
12:35 AM 59.0 °F 59.0 °F 100% 29.82 in 0.2 mi West 3.5 mph - N/A Fog Fog
12:55 AM 59.0 °F 59.0 °F 100% 29.82 in 0.2 mi Calm Calm - N/A Fog Fog
1:15 AM 57.2 °F 57.2 °F 100% 29.81 in 0.2 mi Calm Calm - N/A Fog Fog
1:35 AM 55.4 °F 55.4 °F 100% 29.81 in 0.2 mi Calm Calm - N/A Fog Fog
1:55 AM 55.4 °F 55.4 °F 100% 29.82 in 0.2 mi Calm Calm - N/A Fog Fog
2:15 AM 55.4 °F 55.4 °F 100% 29.83 in 0.2 mi Calm Calm - N/A Fog Fog
2:35 AM 55.4 °F 55.4 °F 100% 29.83 in 0.8 mi Calm Calm - N/A   Overcast
2:55 AM 55.4 °F 55.4 °F 100% 29.83 in 1.5 mi Calm Calm - N/A   Overcast
3:15 AM 55.4 °F 55.4 °F 100% 29.84 in 1.8 mi Calm Calm - N/A   Overcast
3:35 AM 55.4 °F 55.4 °F 100% 29.84 in 2.0 mi Calm Calm - N/A   Overcast
3:55 AM 55.4 °F 55.4 °F 100% 29.83 in 2.5 mi Calm Calm - N/A   Overcast
4:15 AM 53.6 °F 53.6 °F 100% 29.84 in 0.5 mi Calm Calm - N/A Fog Fog
4:35 AM 53.6 °F 53.6 °F 100% 29.84 in 1.5 mi Calm Calm - N/A   Overcast
4:55 AM 55.4 °F 53.6 °F 94% 29.83 in 1.0 mi Calm Calm - N/A   Overcast
5:15 AM 55.4 °F 53.6 °F 94% 29.84 in 2.0 mi Calm Calm - N/A   Overcast
5:35 AM 55.4 °F 55.4 °F 100% 29.84 in 2.5 mi Calm Calm - N/A   Overcast
5:55 AM 55.4 °F 53.6 °F 94% 29.85 in 2.5 mi Calm Calm - N/A   Overcast
6:15 AM 55.4 °F 53.6 °F 94% 29.85 in 2.5 mi Calm Calm - N/A   Overcast
6:35 AM 53.6 °F 53.6 °F 100% 29.86 in 1.5 mi Calm Calm - N/A   Overcast
6:55 AM 55.4 °F 53.6 °F 94% 29.86 in 2.5 mi Calm Calm - N/A   Overcast
7:15 AM 55.4 °F 53.6 °F 94% 29.87 in 2.0 mi Calm Calm - N/A   Overcast
7:35 AM 55.4 °F 55.4 °F 100% 29.87 in 2.0 mi Calm Calm - N/A   Overcast
7:55 AM 55.4 °F 55.4 °F 100% 29.87 in 1.2 mi SE 3.5 mph - N/A   Overcast
8:55 AM 55.4 °F 55.4 °F 100% 29.87 in 2.0 mi Calm Calm - N/A   Overcast
9:35 AM 55.4 °F 55.4 °F 100% 29.86 in 2.0 mi NNW 6.9 mph - N/A   Overcast
9:55 AM 55.4 °F 55.4 °F 100% 29.87 in 2.0 mi NNW 3.5 mph - N/A   Overcast
10:15 AM 55.4 °F 55.4 °F 100% 29.86 in 2.5 mi North 5.8 mph - N/A   Overcast
10:35 AM 55.4 °F 55.4 °F 100% 29.87 in 3.0 mi North 4.6 mph - N/A   Overcast
10:55 AM 55.4 °F 55.4 °F 100% 29.86 in 3.0 mi North 5.8 mph - N/A   Overcast
11:15 AM 57.2 °F 55.4 °F 94% 29.85 in 3.0 mi North 6.9 mph - N/A   Overcast
11:35 AM 57.2 °F 55.4 °F 94% 29.84 in 2.5 mi North 4.6 mph - N/A   Overcast
11:55 AM 57.2 °F 55.4 °F 94% 29.83 in 1.5 mi North 9.2 mph - N/A   Overcast
12:15 PM 57.2 °F 55.4 °F 94% 29.84 in 2.0 mi NNW 5.8 mph - N/A   Overcast
12:35 PM 55.4 °F 55.4 °F 100% 29.84 in 2.0 mi Calm Calm - N/A   Overcast
12:55 PM 55.4 °F 55.4 °F 100% 29.82 in 1.5 mi North 5.8 mph - N/A   Drizzle
1:15 PM 57.2 °F 55.4 °F 94% 29.82 in 1.5 mi Calm Calm - N/A Rain Rain
1:35 PM 57.2 °F 55.4 °F 94% 29.81 in 1.8 mi NNW 5.8 mph - N/A   Light Drizzle
1:55 PM 57.2 °F 55.4 °F 94% 29.80 in 1.8 mi North 5.8 mph - N/A Rain Light Rain
2:15 PM 57.2 °F 55.4 °F 94% 29.79 in 2.5 mi North 4.6 mph - N/A   Light Drizzle
2:35 PM 55.4 °F 55.4 °F 100% 29.79 in 3.0 mi NNW 8.1 mph - N/A Rain Light Rain
2:55 PM 55.4 °F 55.4 °F 100% 29.78 in 2.5 mi North 6.9 mph - 0.01 in Rain Rain
3:15 PM 55.4 °F 53.6 °F 94% 29.77 in 3.0 mi North 8.1 mph - N/A   Light Drizzle
3:35 PM 55.4 °F 53.6 °F 94% 29.78 in 2.5 mi North 8.1 mph - N/A Rain Rain
3:55 PM 55.4 °F 53.6 °F 94% 29.77 in 3.0 mi NNW 6.9 mph - N/A Rain Light Rain
4:15 PM 55.4 °F 53.6 °F 94% 29.76 in 2.5 mi North 5.8 mph - N/A   Light Drizzle
4:35 PM 55.4 °F 53.6 °F 94% 29.76 in 3.0 mi NNW 5.8 mph - N/A   Overcast
4:55 PM 55.4 °F 53.6 °F 94% 29.76 in 1.8 mi NNW 8.1 mph - 0.02 in Rain Heavy Rain
5:15 PM 53.6 °F 53.6 °F 100% 29.76 in 3.0 mi NNW 8.1 mph - 0.02 in Rain Heavy Rain
5:35 PM 55.4 °F 53.6 °F 94% 29.76 in 3.0 mi NNW 5.8 mph - 0.06 in Rain Light Rain
5:55 PM 53.6 °F 53.6 °F 100% 29.76 in 4.0 mi NNW 10.4 mph 19.6 mph 0.07 in Rain Light Rain
6:15 PM 53.6 °F 53.6 °F 100% 29.76 in 7.0 mi North 8.1 mph - N/A   Light Drizzle
6:35 PM 53.6 °F 53.6 °F 100% 29.77 in 7.0 mi NNW 9.2 mph - N/A   Drizzle
6:55 PM 53.6 °F 51.8 °F 94% 29.78 in 7.0 mi NNW 8.1 mph 18.4 mph N/A   Drizzle
7:15 PM 51.8 °F 51.8 °F 100% 29.79 in 5.0 mi North 9.2 mph 16.1 mph N/A   Heavy Drizzle
7:35 PM 51.8 °F 51.8 °F 100% 29.79 in 5.0 mi NNW 9.2 mph - 0.01 in   Drizzle
7:55 PM 51.8 °F 50.0 °F 94% 29.79 in 5.0 mi North 9.2 mph 16.1 mph 0.01 in   Drizzle
8:15 PM 51.8 °F 50.0 °F 94% 29.79 in 10.0 mi North 11.5 mph 17.3 mph N/A   Light Drizzle
8:35 PM 51.8 °F 50.0 °F 94% 29.80 in 10.0 mi North 10.4 mph 16.1 mph N/A   Overcast
9:15 PM 50.0 °F 48.2 °F 94% 29.79 in 10.0 mi North 9.2 mph - N/A   Overcast
9:35 PM 50.0 °F 48.2 °F 94% 29.79 in 10.0 mi North 9.2 mph - N/A   Overcast
9:55 PM 50.0 °F 48.2 °F 94% 29.78 in 10.0 mi North 10.4 mph - N/A   Overcast
10:15 PM 50.0 °F 48.2 °F 94% 29.78 in 10.0 mi North 9.2 mph - N/A   Overcast
10:35 PM 50.0 °F 48.2 °F 94% 29.80 in 10.0 mi NNW 8.1 mph - N/A   Overcast
10:55 PM 50.0 °F 48.2 °F 94% 29.78 in 10.0 mi North 11.5 mph - N/A   Overcast
11:15 PM 50.0 °F 48.2 °F 94% 29.79 in 7.0 mi NNW 8.1 mph - N/A   Overcast
11:35 PM 50.0 °F 46.4 °F 87% 29.77 in 7.0 mi North 10.4 mph - N/A   Overcast
11:55 PM 48.2 °F 46.4 °F 93% 29.78 in 5.0 mi North 10.4 mph - N/A   Overcast